Time,TemperatureF,DewpointF,PressureIn,WindDirection,WindDirectionDegrees,WindSpeedMPH,WindSpeedGustMPH,Humidity,HourlyPrecipIn,Conditions,Clouds,dailyrainin,SoftwareType,DateUTC
2013-03-13 00:01:00,52.0,50.0,30.11,SSW,195,2.0,-999.0,92,-99.99,,,-99.99,,2013-03-13 07:01:00,
2013-03-13 00:12:00,52.0,50.0,30.11,SSW,195,2.0,-999.0,92,-99.99,,,-99.99,,2013-03-13 07:12:00,
2013-03-13 00:22:00,52.0,50.0,30.12,South,185,1.0,-999.0,92,-99.99,,,-99.99,,2013-03-13 07:22:00,
2013-03-13 00:32:00,52.0,50.0,30.12,SSW,196,0.0,-999.0,92,-99.99,,,-99.99,,2013-03-13 07:32:00,
2013-03-13 00:42:00,52.0,50.0,30.12,SSW,196,0.0,-999.0,92,-99.99,,,-99.99,,2013-03-13 07:42:00,
2013-03-13 00:52:00,52.0,49.0,30.13,SSE,158,1.0,-999.0,91,-99.99,,,-99.99,,2013-03-13 07:52:00,
2013-03-13 01:02:00,52.0,49.0,30.13,SSW,209,1.0,-999.0,91,-99.99,,,-99.99,,2013-03-13 08:02:00,
2013-03-13 01:11:00,52.0,49.0,30.13,SSW,209,1.0,-999.0,91,-99.99,,,-99.99,,2013-03-13 08:11:00,
2013-03-13 01:22:00,52.0,49.0,30.13,South,191,1.0,-999.0,91,-99.99,,,-99.99,,2013-03-13 08:22:00,
2013-03-13 01:31:00,52.0,49.0,30.12,SSW,207,2.0,-999.0,90,-99.99,,,-99.99,,2013-03-13 08:31:00,
2013-03-13 01:42:00,52.0,49.0,30.12,SSW,207,2.0,-999.0,90,-99.99,,,-99.99,,2013-03-13 08:42:00,
2013-03-13 01:53:00,52.0,49.0,30.12,West,278,2.0,-999.0,91,-99.99,,,-99.99,,2013-03-13 08:53:00,
2013-03-13 02:01:00,52.0,49.0,30.13,SSW,194,3.0,-999.0,91,-99.99,,,-99.99,,2013-03-13 09:01:00,
2013-03-13 02:11:00,52.0,49.0,30.13,SSW,194,3.0,-999.0,91,-99.99,,,-99.99,,2013-03-13 09:11:00,
2013-03-13 02:22:00,52.0,50.0,30.13,SSW,197,2.0,-999.0,92,-99.99,,,-99.99,,2013-03-13 09:22:00,
2013-03-13 02:32:00,52.0,50.0,30.13,SSW,198,2.0,-999.0,92,-99.99,,,-99.99,,2013-03-13 09:32:00,
2013-03-13 02:42:00,52.0,50.0,30.13,SSW,198,2.0,-999.0,92,-99.99,,,-99.99,,2013-03-13 09:42:00,
2013-03-13 02:52:00,52.0,49.0,30.13,SSW,192,3.0,-999.0,91,-99.99,,,-99.99,,2013-03-13 09:52:00,
2013-03-13 03:01:00,52.0,49.0,30.13,SSW,198,3.0,-999.0,90,-99.99,,,-99.99,,2013-03-13 10:01:00,
2013-03-13 03:11:00,52.0,49.0,30.13,SSW,198,3.0,-999.0,90,-99.99,,,-99.99,,2013-03-13 10:11:00,
2013-03-13 03:22:00,52.0,49.0,30.14,SSW,201,3.0,-999.0,89,-99.99,,,-99.99,,2013-03-13 10:22:00,
2013-03-13 03:32:00,52.0,49.0,30.16,SSW,198,2.0,-999.0,89,-99.99,,,-99.99,,2013-03-13 10:32:00,
2013-03-13 03:42:00,52.0,49.0,30.16,SSW,198,2.0,-999.0,89,-99.99,,,-99.99,,2013-03-13 10:42:00,
2013-03-13 03:52:00,52.0,49.0,30.17,SSW,197,2.0,-999.0,89,-99.99,,,-99.99,,2013-03-13 10:52:00,
2013-03-13 04:01:00,52.0,49.0,30.16,SSW,211,2.0,-999.0,89,-99.99,,,-99.99,,2013-03-13 11:01:00,
2013-03-13 04:12:00,52.0,49.0,30.16,SSW,211,2.0,-999.0,89,-99.99,,,-99.99,,2013-03-13 11:12:00,
2013-03-13 04:22:00,52.0,49.0,30.16,SSW,196,3.0,-999.0,90,-99.99,,,-99.99,,2013-03-13 11:22:00,
2013-03-13 04:31:00,52.0,49.0,30.16,SW,223,3.0,-999.0,90,-99.99,,,-99.99,,2013-03-13 11:31:00,
2013-03-13 04:42:00,52.0,49.0,30.16,SW,223,3.0,-999.0,90,-99.99,,,-99.99,,2013-03-13 11:42:00,
2013-03-13 04:52:00,52.0,49.0,30.16,SSW,200,2.0,-999.0,91,-99.99,,,-99.99,,2013-03-13 11:52:00,
2013-03-13 05:02:00,52.0,49.0,30.16,South,190,2.0,-999.0,90,-99.99,,,-99.99,,2013-03-13 12:02:00,
2013-03-13 05:11:00,52.0,49.0,30.16,South,190,2.0,-999.0,90,-99.99,,,-99.99,,2013-03-13 12:11:00,
2013-03-13 05:22:00,52.0,49.0,30.16,SSW,201,1.0,-999.0,91,-99.99,,,-99.99,,2013-03-13 12:22:00,
2013-03-13 05:32:00,52.0,49.0,30.16,SSE,155,1.0,-999.0,91,-99.99,,,-99.99,,2013-03-13 12:32:00,
2013-03-13 05:41:00,52.0,49.0,30.16,SSE,155,1.0,-999.0,91,-99.99,,,-99.99,,2013-03-13 12:41:00,
2013-03-13 05:53:00,52.0,49.0,30.16,SSW,204,1.0,-999.0,91,-99.99,,,-99.99,,2013-03-13 12:53:00,
2013-03-13 06:01:00,52.0,49.0,30.16,South,182,1.0,-999.0,91,-99.99,,,-99.99,,2013-03-13 13:01:00,
2013-03-13 06:11:00,52.0,49.0,30.16,South,182,1.0,-999.0,91,-99.99,,,-99.99,,2013-03-13 13:11:00,
2013-03-13 06:21:00,51.0,48.0,30.16,WNW,289,1.0,-999.0,91,-99.99,,,-99.99,,2013-03-13 13:21:00,
2013-03-13 06:32:00,51.0,48.0,30.16,South,186,0.0,-999.0,91,-99.99,,,-99.99,,2013-03-13 13:32:00,
2013-03-13 06:42:00,51.0,48.0,30.16,South,186,0.0,-999.0,91,-99.99,,,-99.99,,2013-03-13 13:42:00,
2013-03-13 06:52:00,51.0,49.0,30.16,SSE,162,0.0,-999.0,92,-99.99,,,-99.99,,2013-03-13 13:52:00,
2013-03-13 07:02:00,51.0,49.0,30.16,SW,215,0.0,-999.0,92,-99.99,,,-99.99,,2013-03-13 14:02:00,
2013-03-13 07:11:00,51.0,49.0,30.16,SW,215,0.0,-999.0,92,-99.99,,,-99.99,,2013-03-13 14:11:00,
2013-03-13 07:21:00,51.0,49.0,30.15,SSW,213,1.0,-999.0,92,-99.99,,,-99.99,,2013-03-13 14:21:00,
2013-03-13 07:32:00,51.0,49.0,30.15,South,186,1.0,-999.0,92,-99.99,,,-99.99,,2013-03-13 14:32:00,
2013-03-13 07:42:00,51.0,49.0,30.15,South,186,1.0,-999.0,92,-99.99,,,-99.99,,2013-03-13 14:42:00,
2013-03-13 07:52:00,51.0,49.0,30.16,SSW,209,2.0,-999.0,92,-99.99,,,-99.99,,2013-03-13 14:52:00,
2013-03-13 08:02:00,51.0,49.0,30.15,SSW,194,1.0,-999.0,92,-99.99,,,-99.99,,2013-03-13 15:02:00,
2013-03-13 08:11:00,51.0,49.0,30.15,SSW,194,1.0,-999.0,92,-99.99,,,-99.99,,2013-03-13 15:11:00,
2013-03-13 08:22:00,51.0,48.0,30.16,South,190,0.0,-999.0,91,-99.99,,,-99.99,,2013-03-13 15:22:00,
2013-03-13 08:31:00,51.0,48.0,30.16,SSE,167,1.0,-999.0,91,-99.99,,,-99.99,,2013-03-13 15:31:00,
2013-03-13 08:42:00,51.0,48.0,30.16,SSE,167,1.0,-999.0,91,-99.99,,,-99.99,,2013-03-13 15:42:00,
2013-03-13 08:52:00,52.0,49.0,30.17,SSE,154,0.0,-999.0,91,-99.99,,,-99.99,,2013-03-13 15:52:00,
2013-03-13 09:02:00,52.0,49.0,30.18,South,174,0.0,-999.0,91,-99.99,,,-99.99,,2013-03-13 16:02:00,
2013-03-13 09:11:00,52.0,49.0,30.18,South,174,0.0,-999.0,91,-99.99,,,-99.99,,2013-03-13 16:11:00,
2013-03-13 09:21:00,52.0,49.0,30.18,South,182,1.0,-999.0,90,-99.99,,,-99.99,,2013-03-13 16:21:00,
2013-03-13 09:32:00,52.0,49.0,30.18,SSW,213,1.0,-999.0,89,-99.99,,,-99.99,,2013-03-13 16:32:00,
2013-03-13 09:42:00,52.0,49.0,30.18,SSW,213,1.0,-999.0,89,-99.99,,,-99.99,,2013-03-13 16:42:00,
2013-03-13 09:52:00,52.0,49.0,30.18,SE,130,0.0,-999.0,89,-99.99,,,-99.99,,2013-03-13 16:52:00,
2013-03-13 10:01:00,52.0,49.0,30.18,SSE,160,1.0,-999.0,89,-99.99,,,-99.99,,2013-03-13 17:01:00,
2013-03-13 10:11:00,52.0,49.0,30.18,SSE,160,1.0,-999.0,89,-99.99,,,-99.99,,2013-03-13 17:11:00,
2013-03-13 10:22:00,52.0,49.0,30.19,South,188,0.0,-999.0,89,-99.99,,,-99.99,,2013-03-13 17:22:00,
2013-03-13 10:32:00,52.0,49.0,30.19,SSW,195,0.0,-999.0,90,-99.99,,,-99.99,,2013-03-13 17:32:00,
2013-03-13 10:42:00,52.0,49.0,30.19,SSW,195,0.0,-999.0,90,-99.99,,,-99.99,,2013-03-13 17:42:00,
2013-03-13 10:53:00,52.0,50.0,30.20,SSW,194,0.0,-999.0,92,-99.99,,,-99.99,,2013-03-13 17:53:00,
2013-03-13 11:02:00,52.0,50.0,30.20,SSW,194,0.0,-999.0,92,-99.99,,,-99.99,,2013-03-13 18:02:00,
2013-03-13 11:12:00,52.0,50.0,30.20,SSW,194,0.0,-999.0,92,-99.99,,,-99.99,,2013-03-13 18:12:00,
2013-03-13 11:21:00,52.0,50.0,30.20,SSW,201,0.0,-999.0,92,-99.99,,,-99.99,,2013-03-13 18:21:00,
2013-03-13 11:32:00,52.0,50.0,30.20,SSW,201,0.0,-999.0,93,-99.99,,,-99.99,,2013-03-13 18:32:00,
2013-03-13 11:42:00,52.0,50.0,30.20,SSW,201,0.0,-999.0,93,-99.99,,,-99.99,,2013-03-13 18:42:00,
2013-03-13 11:52:00,52.0,50.0,30.20,SSW,201,0.0,-999.0,94,-99.99,,,-99.99,,2013-03-13 18:52:00,
2013-03-13 12:02:00,52.0,50.0,30.20,SSW,201,0.0,-999.0,94,-99.99,,,-99.99,,2013-03-13 19:02:00,
2013-03-13 12:12:00,52.0,50.0,30.20,SSW,201,0.0,-999.0,94,-99.99,,,-99.99,,2013-03-13 19:12:00,
2013-03-13 12:22:00,52.0,50.0,30.20,South,180,0.0,-999.0,94,-99.99,,,-99.99,,2013-03-13 19:22:00,
2013-03-13 12:31:00,52.0,50.0,30.20,South,180,0.0,-999.0,94,-99.99,,,-99.99,,2013-03-13 19:31:00,
2013-03-13 12:42:00,52.0,50.0,30.20,South,180,0.0,-999.0,94,-99.99,,,-99.99,,2013-03-13 19:42:00,
2013-03-13 12:53:00,52.0,51.0,30.19,South,175,0.0,-999.0,95,-99.99,,,-99.99,,2013-03-13 19:53:00,
2013-03-13 13:02:00,51.0,50.0,30.20,SW,224,0.0,-999.0,95,-99.99,,,-99.99,,2013-03-13 20:02:00,
2013-03-13 13:11:00,51.0,50.0,30.20,SW,224,0.0,-999.0,95,-99.99,,,-99.99,,2013-03-13 20:11:00,
2013-03-13 13:21:00,52.0,51.0,30.21,SW,234,0.0,-999.0,95,-99.99,,,-99.99,,2013-03-13 20:21:00,
2013-03-13 13:32:00,52.0,51.0,30.21,SW,234,0.0,-999.0,95,-99.99,,,-99.99,,2013-03-13 20:32:00,
2013-03-13 13:41:00,52.0,51.0,30.21,SW,234,0.0,-999.0,95,-99.99,,,-99.99,,2013-03-13 20:41:00,
2013-03-13 13:52:00,52.0,51.0,30.21,SW,234,0.0,-999.0,95,-99.99,,,-99.99,,2013-03-13 20:52:00,
2013-03-13 14:01:00,52.0,51.0,30.20,SW,214,0.0,-999.0,96,-99.99,,,-99.99,,2013-03-13 21:01:00,
2013-03-13 14:11:00,52.0,51.0,30.20,SW,214,0.0,-999.0,96,-99.99,,,-99.99,,2013-03-13 21:11:00,
2013-03-13 14:21:00,53.0,52.0,30.19,SSE,159,0.0,-999.0,96,-99.99,,,-99.99,,2013-03-13 21:21:00,
2013-03-13 14:32:00,53.0,52.0,30.19,SSE,159,0.0,-999.0,96,-99.99,,,-99.99,,2013-03-13 21:32:00,
2013-03-13 14:41:00,53.0,52.0,30.19,SSE,159,0.0,-999.0,96,-99.99,,,-99.99,,2013-03-13 21:41:00,
2013-03-13 14:52:00,53.0,52.0,30.18,South,187,0.0,-999.0,97,-99.99,,,-99.99,,2013-03-13 21:52:00,
2013-03-13 15:01:00,53.0,52.0,30.18,South,187,0.0,-999.0,97,-99.99,,,-99.99,,2013-03-13 22:01:00,
2013-03-13 15:12:00,53.0,52.0,30.18,South,187,0.0,-999.0,97,-99.99,,,-99.99,,2013-03-13 22:12:00,
2013-03-13 15:22:00,53.0,52.0,30.17,South,184,0.0,-999.0,97,-99.99,,,-99.99,,2013-03-13 22:22:00,
2013-03-13 15:31:00,53.0,52.0,30.17,South,184,0.0,-999.0,97,-99.99,,,-99.99,,2013-03-13 22:31:00,
2013-03-13 15:42:00,53.0,52.0,30.17,South,184,0.0,-999.0,97,-99.99,,,-99.99,,2013-03-13 22:42:00,
2013-03-13 15:52:00,53.0,52.0,30.17,SE,132,0.0,-999.0,97,-99.99,,,-99.99,,2013-03-13 22:52:00,
2013-03-13 16:01:00,53.0,52.0,30.16,SE,132,0.0,-999.0,97,-99.99,,,-99.99,,2013-03-13 23:01:00,
2013-03-13 16:12:00,53.0,52.0,30.16,SE,132,0.0,-999.0,97,-99.99,,,-99.99,,2013-03-13 23:12:00,
2013-03-13 16:22:00,53.0,52.0,30.16,SSE,161,0.0,-999.0,97,-99.99,,,-99.99,,2013-03-13 23:22:00,
2013-03-13 16:31:00,53.0,52.0,30.16,SSE,161,0.0,-999.0,97,-99.99,,,-99.99,,2013-03-13 23:31:00,
2013-03-13 16:42:00,53.0,52.0,30.16,SSE,161,0.0,-999.0,97,-99.99,,,-99.99,,2013-03-13 23:42:00,
2013-03-13 16:52:00,53.0,52.0,30.16,SW,236,0.0,-999.0,97,-99.99,,,-99.99,,2013-03-13 23:52:00,
2013-03-13 17:02:00,53.0,52.0,30.15,SW,236,0.0,-999.0,97,-99.99,,,-99.99,,2013-03-14 00:02:00,
2013-03-13 17:12:00,53.0,52.0,30.15,SW,236,0.0,-999.0,97,-99.99,,,-99.99,,2013-03-14 00:12:00,
2013-03-13 17:21:00,53.0,52.0,30.15,SW,236,0.0,-999.0,97,-99.99,,,-99.99,,2013-03-14 00:21:00,
2013-03-13 17:31:00,53.0,52.0,30.15,SSE,155,0.0,-999.0,97,-99.99,,,-99.99,,2013-03-14 00:31:00,
2013-03-13 17:42:00,53.0,52.0,30.15,SSE,155,0.0,-999.0,97,-99.99,,,-99.99,,2013-03-14 00:42:00,
2013-03-13 17:52:00,53.0,52.0,30.13,SSE,155,0.0,-999.0,97,-99.99,,,-99.99,,2013-03-14 00:52:00,
2013-03-13 18:02:00,53.0,52.0,30.12,SSE,155,0.0,-999.0,97,-99.99,,,-99.99,,2013-03-14 01:02:00,
2013-03-13 18:12:00,53.0,52.0,30.12,SSE,155,0.0,-999.0,97,-99.99,,,-99.99,,2013-03-14 01:12:00,
2013-03-13 18:22:00,53.0,52.0,30.13,SSW,205,0.0,-999.0,97,-99.99,,,-99.99,,2013-03-14 01:22:00,
2013-03-13 18:31:00,53.0,52.0,30.13,SSW,205,0.0,-999.0,97,-99.99,,,-99.99,,2013-03-14 01:31:00,
2013-03-13 18:41:00,53.0,52.0,30.13,SSW,205,0.0,-999.0,97,-99.99,,,-99.99,,2013-03-14 01:41:00,
2013-03-13 18:52:00,53.0,52.0,30.13,SSW,205,0.0,-999.0,97,-99.99,,,-99.99,,2013-03-14 01:52:00,
2013-03-13 19:01:00,53.0,52.0,30.13,SSW,205,0.0,-999.0,97,-99.99,,,-99.99,,2013-03-14 02:01:00,
2013-03-13 19:22:00,52.0,51.0,30.11,SSW,205,0.0,-999.0,97,-99.99,,,-99.99,,2013-03-14 02:22:00,
2013-03-13 19:31:00,52.0,51.0,30.12,SSW,205,0.0,-999.0,97,-99.99,,,-99.99,,2013-03-14 02:31:00,
2013-03-13 19:42:00,52.0,51.0,30.12,SSW,205,0.0,-999.0,97,-99.99,,,-99.99,,2013-03-14 02:42:00,
2013-03-13 19:52:00,52.0,51.0,30.12,SSW,205,0.0,-999.0,97,-99.99,,,-99.99,,2013-03-14 02:52:00,
2013-03-13 20:01:00,52.0,51.0,30.12,SSW,205,0.0,-999.0,97,-99.99,,,-99.99,,2013-03-14 03:01:00,
2013-03-13 20:12:00,52.0,51.0,30.12,SSW,205,0.0,-999.0,97,-99.99,,,-99.99,,2013-03-14 03:12:00,
2013-03-13 20:22:00,52.0,51.0,30.12,SSW,205,0.0,-999.0,97,-99.99,,,-99.99,,2013-03-14 03:22:00,
2013-03-13 20:32:00,52.0,51.0,30.11,SSW,205,0.0,-999.0,97,-99.99,,,-99.99,,2013-03-14 03:32:00,
2013-03-13 20:42:00,52.0,51.0,30.11,SSW,205,0.0,-999.0,97,-99.99,,,-99.99,,2013-03-14 03:42:00,
2013-03-13 20:52:00,52.0,51.0,30.12,SSW,205,0.0,-999.0,97,-99.99,,,-99.99,,2013-03-14 03:52:00,
2013-03-13 21:01:00,52.0,51.0,30.12,SSW,205,0.0,-999.0,97,-99.99,,,-99.99,,2013-03-14 04:01:00,
2013-03-13 21:11:00,52.0,51.0,30.12,SSW,205,0.0,-999.0,97,-99.99,,,-99.99,,2013-03-14 04:11:00,
2013-03-13 21:22:00,52.0,51.0,30.11,SSW,205,0.0,-999.0,97,-99.99,,,-99.99,,2013-03-14 04:22:00,
2013-03-13 21:32:00,52.0,51.0,30.11,SSW,205,0.0,-999.0,97,-99.99,,,-99.99,,2013-03-14 04:32:00,
2013-03-13 21:41:00,52.0,51.0,30.11,SSW,205,0.0,-999.0,97,-99.99,,,-99.99,,2013-03-14 04:41:00,
2013-03-13 21:52:00,51.0,50.0,30.11,SSW,205,0.0,-999.0,97,-99.99,,,-99.99,,2013-03-14 04:52:00,
2013-03-13 22:01:00,51.0,50.0,30.12,SSW,205,0.0,-999.0,97,-99.99,,,-99.99,,2013-03-14 05:01:00,
2013-03-13 22:12:00,51.0,50.0,30.12,SSW,205,0.0,-999.0,97,-99.99,,,-99.99,,2013-03-14 05:12:00,
2013-03-13 22:22:00,51.0,50.0,30.11,SSW,205,0.0,-999.0,97,-99.99,,,-99.99,,2013-03-14 05:22:00,
2013-03-13 22:32:00,51.0,50.0,30.10,SSW,205,0.0,-999.0,97,-99.99,,,-99.99,,2013-03-14 05:32:00,
2013-03-13 22:42:00,51.0,50.0,30.10,SSW,205,0.0,-999.0,97,-99.99,,,-99.99,,2013-03-14 05:42:00,
2013-03-13 22:52:00,51.0,50.0,30.11,SSW,205,0.0,-999.0,97,-99.99,,,-99.99,,2013-03-14 05:52:00,
2013-03-13 23:01:00,51.0,50.0,30.11,SSW,205,0.0,-999.0,97,-99.99,,,-99.99,,2013-03-14 06:01:00,
2013-03-13 23:12:00,51.0,50.0,30.11,SSW,205,0.0,-999.0,97,-99.99,,,-99.99,,2013-03-14 06:12:00,
2013-03-13 23:21:00,51.0,50.0,30.11,SSW,205,0.0,-999.0,97,-99.99,,,-99.99,,2013-03-14 06:21:00,
2013-03-13 23:31:00,51.0,50.0,30.10,SSW,205,0.0,-999.0,97,-99.99,,,-99.99,,2013-03-14 06:31:00,
2013-03-13 23:41:00,51.0,50.0,30.10,SSW,205,0.0,-999.0,97,-99.99,,,-99.99,,2013-03-14 06:41:00,
2013-03-13 23:52:00,51.0,50.0,30.11,SSW,205,0.0,-999.0,97,-99.99,,,-99.99,,2013-03-14 06:52:00,